Location: Huntsville
(41.2590°N, 111.7678°W)
Time: 06:48:10
(UTC+00:00)

BlueWalker 3 - Visible Passes

Search period start: 02 December 2022 00:00
Search period end: 12 December 2022 00:00
Orbit: 500 x 519 km, 53.2° (Epoch: 01 December)

Date Brightness Start Highest point End Pass type
(mag) Time Alt. Az. Time Alt. Az. Time Alt. Az.
02 Dec 4.2 01:52:02 10° NNW 01:53:45 14° N 01:53:45 14° N visible
03 Dec 4.1 01:33:40 10° NNW 01:35:52 14° N 01:36:06 14° N visible
04 Dec 4.0 01:15:19 10° NNW 01:17:32 14° N 01:18:28 14° NNE visible
05 Dec 4.0 00:56:56 10° NNW 00:59:11 15° N 01:00:52 12° NNE visible
05 Dec 4.8 02:35:22 10° NW 02:35:42 12° NW 02:35:42 12° NW visible
06 Dec 4.0 00:38:33 10° NNW 00:40:50 15° N 00:43:06 10° NE visible
06 Dec 4.2 02:16:57 10° NW 02:18:09 17° NNW 02:18:09 17° NNW visible
07 Dec 3.5 01:58:32 10° NW 02:00:42 25° NNW 02:00:42 25° NNW visible
08 Dec 2.8 01:40:06 10° NW 01:43:20 33° NNE 01:43:20 33° NNE visible
09 Dec 2.6 01:21:40 10° NW 01:25:18 36° NNE 01:26:06 32° ENE visible
09 Dec 5.0 03:00:23 10° WNW 03:00:58 13° WNW 03:00:58 13° WNW visible
10 Dec 2.5 01:03:13 10° NW 01:06:54 38° NNE 01:09:05 20° E visible
10 Dec 4.2 02:42:00 10° WNW 02:43:58 23° W 02:43:58 23° W visible
11 Dec 2.5 00:44:47 10° NW 00:48:29 40° NNE 00:52:09 10° ESE visible
11 Dec 3.6 02:23:37 10° WNW 02:27:04 30° SW 02:27:13 30° SW visible
